Regional Weather Roundup
Issued by NWS

Home | Current Version | Previous Version | Text Only | Print | Product List | Glossary Off
Versions: 1 2 3 4 5 6 7 8 9 10 11 12 13 14 15 16 17 18 19 20 21 22 23 24 25 26 27 28 29 30 31 32 33 34 35 36 37 38 39 40 41 42 43 44 45 46 47 48 49 50

000
ASUS43 KMKX 261459
RWRWI

WISCONSIN REGIONAL WEATHER ROUNDUP
NATIONAL WEATHER SERVICE MILWAUKEE/SULLIVAN WI
900 AM CST MON JAN 26 2015

NOTE: "FAIR" INDICATES FEW OR NO CLOUDS BELOW 12,000 FEET WITH NO
SIGNIFICANT WEATHER AND/OR OBSTRUCTIONS TO VISIBILITY.

WIZ001-002-006>008-014>016-023>028-261600-
NORTHWEST WISCONSIN

CITY           SKY/WX    TMP DP  RH WIND       PRES   REMARKS
SUPERIOR ARPT  CLOUDY    22  22  96 CALM      29.68S FOG
ASHLAND        LGT SNOW  21  17  84 S9        29.71S VSB 1   WCI  11
HAYWARD        FRZ RAIN  19  16  88 S7        29.69R FOG     WCI  10
SIREN          CLOUDY    24  23  96 S7        29.68F FOG     WCI  16
CUMBERLAND     MIX PCPN  21  21 100 S8        29.68F WCI  12
RICE LAKE      MIX PCPN  22  20  92 SE9       29.71F WCI  11
CHETEK         CLOUDY    20  19  93 SE6       29.72F FOG     WCI  13
LADYSMITH      LGT SNOW  18  15  89 SE9       29.74F VSB 3/4 WCI   7
EAU CLAIRE     NOT AVBL
MENOMONIE      CLOUDY    23  21  91 E6        29.73F WCI  16
NEW RICHMOND   CLOUDY    28  27  96 S10       29.69F WCI  18
OSCEOLA        CLOUDY    28  28 100 S7        29.72F WCI  21
$$

WIZ003>005-009-010-017-018-261600-
NORTH CENTRAL WISCONSIN

CITY           SKY/WX    TMP DP  RH WIND       PRES   REMARKS
MANITOWISH WTR LGT SNOW  13  10  88 S9        29.71F WCI   1
ARBOR VITAE    LGT SNOW  17  13  84 S7        29.72F WCI   7
WOODRUFF       LGT SNOW  17  13  84 S7        29.72F WCI   7
RHINELANDER    LGT SNOW  14  10  84 S7        29.75S VSB 1   WCI   4
EAGLE RIVER    LGT SNOW  14   8  78 S6        29.74F WCI   5
LAND O LAKES   LGT SNOW  15  10  83 S7        29.75S WCI   5
PHILLIPS       FLURRIES  15  12  86 SE9       29.71F WCI   4
TOMAHAWK       LGT SNOW  14  10  86 CALM      29.77S
MEDFORD        FLURRIES  15  12  86 SE8       29.75F WCI   4
MERRILL        LGT SNOW  15  11  85 S3        29.79S
$$

WIZ029-030-035-036-043>047-261600-
CENTRAL WISCONSIN

CITY           SKY/WX    TMP DP  RH WIND       PRES   REMARKS
WAUSAU         LGT SNOW  15  11  83 S7        29.79F VSB 3/4 WCI   5
MOSINEE        NOT AVBL
MARSHFIELD     LGT SNOW  17  13  84 S12       29.78F VSB 1   WCI   4
STEVENS POINT  MIX PCPN  15  11  85 SE7       29.83F WCI   5
WAUPACA        CLOUDY    19  11  73 SE7       29.88F WCI   9
WAUTOMA        NOT AVBL
WISC RAPIDS    SNOW      17  12  80 S6        29.85R VSB 1/2 WCI   9
CAMP DOUGLAS   NOT AVBL
$$

WIZ011>013-019>022-031-037>040-048>050-261600-
NORTHEAST WISCONSIN

CITY           SKY/WX    TMP DP  RH WIND       PRES   REMARKS
ANTIGO         CLOUDY    13   7  79 SE13      29.79F WCI  -2
SHAWANO        CLOUDY    18  11  76 SE3       29.88F
OCONTO         MOSUNNY   14  12  92 CALM      29.91F
STURGEON BAY   CLOUDY    18  12  79 S7        29.92F WCI   8
GREEN BAY      CLOUDY    16  11  80 SE6       29.90F WCI   7
MANITOWOC      MOSUNNY   19  16  86 CALM      29.93F
APPLETON       PTSUNNY   18  10  73 SE8       29.89F WCI   7
CLINTONVILLE   CLOUDY    16  10  79 SE6       29.88F WCI   7
OSHKOSH        CLOUDY    18  11  74 S8        29.88F WCI   8
$$

WIZ032>034-041-042-053>061-261600-
SOUTHWEST WISCONSIN

CITY           SKY/WX    TMP DP  RH WIND       PRES   REMARKS
LA CROSSE      CLOUDY    23  19  85 S14       29.81F WCI  11
SPARTA         LGT SNOW  21  17  85 S5        29.83F WCI  14
VIROQUA        CLOUDY    19  17  92 S12       29.81F WCI   7
BOSCOBEL       LGT SNOW  21  17  84 VRB5      29.87F VSB 1   WCI  15
PRAIRIE DU CHI LGT SNOW  22  19  86 E6        29.86F WCI  15
PLATTEVILLE    CLOUDY    18  16  91 SE10      29.88F VSB 1   WCI   6
$$

WIZ056-057-062-063-064-067-068-261600-
SOUTH CENTRAL WISCONSIN

CITY           SKY/WX    TMP DP  RH WIND       PRES   REMARKS
REEDSBURG      LGT SNOW  18  15  89 S7        29.85F VSB 1   WCI   8
BARABOO/DELLS  LGT SNOW  18  15  87 S9        29.85F WCI   7
LONE ROCK      HVY SNOW  18  16  93 E5        29.88F VSB 1/4 WCI  11
MINERAL POINT  LGT SNOW  19  18  93 SE10      29.86F VSB 3/4 WCI   8
MADISON        LGT SNOW  18  13  80 S9        29.89F WCI   7
MIDDLETON      CLOUDY    20  15  81 S6        29.89F WCI  12
WATERTOWN      CLOUDY    16  13  86 SE5       29.91F WCI   9
MONROE         LGT SNOW  18  14  86 S7        29.90F WCI   8
JANESVILLE     CLOUDY    18  14  86 VRB6      29.93F WCI   9
$$

WIZ051-052-058>065-066-070>072-261600-
SOUTHEAST WISCONSIN

CITY           SKY/WX    TMP DP  RH WIND       PRES   REMARKS
MILWAUKEE      PTSUNNY   23  14  68 SW5       29.94F WCI  17
WAUKESHA       CLOUDY    18  12  79 CALM      29.93F
MILWAUKEE/TIMM PTSUNNY   19  14  79 CALM      29.95F
RACINE         PTSUNNY   22  14  71 W5        29.96F WCI  16
BURLINGTON     CLOUDY    15  12  88 CALM      29.94S
KENOSHA        PTSUNNY   20  15  81 CALM      29.95S
FOND DU LAC    CLOUDY    19  13  77 S7        29.89F WCI  10
SHEBOYGAN      MOSUNNY   17  13  84 CALM      29.92F
WEST BEND      CLOUDY    19  14  79 S5        29.92S WCI  13
JUNEAU         CLOUDY    16  11  81 S7        29.91F WCI   6
$$

LSZ147-162-261600-
LAKE SUPERIOR

STATION/POSITION TIME  TEMP    WIND        PRES    WAVE
                       AIR SEA DIR/SP/G            HT/PER
                 (UTC) (F)     (DEG/KT/KT) (MB)    (FT/S)
DEVILS ISLAND    1400   21     170/  8/ 13 1007.2F
PORT WING        1400   22     190/  7/ 13 1005.8S
SAXON HARBOR     1400   21     180/  4/ 10 1006.1F
$$

LMZ867-665-643>646-261600-
LAKE MICHIGAN

STATION/POSITION TIME  TEMP    WIND        PRES    WAVE
                       AIR SEA DIR/SP/G            HT/PER
                 (UTC) (F)     (DEG/KT/KT) (MB)    (FT/S)
NORTHPORT PIER   1416   19      CALM  /  4 1013.9F
SISTER BAY       1313   13        CALM       N/A
KEWAUNEE LAKESHO 1400   16     300/  2/  4 1013.0F
SHEBOYGAN LAKESH 1400   21     220/  3/  4 1015.1F
PORT WASHINGTON  1400   20        CALM     1014.9
MILWAUKEE LAKESH 1400   22     250/  6/  6   N/A
KENOSHA   LAKESH 1400   17     270/  7/  8 1014.6S
$$

TC  - TEMPERATURE IN CELSIUS
VSB - VISIBILITY IN STATUTE MILES
WCI - WIND CHILL INDEX
HX  - HEAT INDEX




USA.gov is the U.S. government's official web portal to all federal, state and local government web resources and services.